| time (UTC) | temp F | wind direction | speed MPH | gust MPH | rain 1hr in | rain 24hr in | rain mn in | humidity % | barometer mb |
| 20260506172345 | 60 | 273 | 6.0 | 11.0 | 0.00 | 0.00 | 0.23 | 93 | 1009.0 |
| 20260506171844 | 60 | 253 | 6.0 | 14.0 | 0.00 | 0.00 | 0.23 | 93 | 1009.0 |
| 20260506171345 | 60 | 247 | 3.0 | 6.0 | 0.00 | 0.00 | 0.23 | 93 | 1009.0 |
| 20260506170844 | 60 | 184 | 5.0 | 7.0 | 0.00 | 0.00 | 0.23 | 93 | 1009.0 |
| 20260506170345 | 60 | 277 | 6.0 | 10.0 | 0.00 | 0.00 | 0.23 | 93 | 1009.0 |
| 20260506165845 | 60 | 238 | 5.0 | 9.0 | 0.00 | 0.00 | 0.23 | 93 | 1009.0 |
| 20260506165345 | 60 | 178 | 6.0 | 10.0 | 0.00 | 0.00 | 0.23 | 94 | 1009.0 |
| 20260506164845 | 60 | 245 | 7.0 | 14.0 | 0.00 | 0.00 | 0.23 | 94 | 1009.0 |
| 20260506164345 | 60 | 235 | 6.0 | 13.0 | 0.00 | 0.00 | 0.23 | 94 | 1009.0 |
| 20260506163844 | 60 | 225 | 4.0 | 7.0 | 0.00 | 0.00 | 0.23 | 94 | 1009.0 |
| 20260506163345 | 60 | 172 | 6.0 | 9.0 | 0.00 | 0.00 | 0.23 | 94 | 1009.0 |
| 20260506162844 | 61 | 157 | 2.0 | 4.0 | 0.00 | 0.00 | 0.23 | 94 | 1009.0 |
| 20260506162344 | 60 | 150 | 5.0 | 7.0 | 0.01 | 0.00 | 0.24 | 94 | 1009.0 |
| 20260506161845 | 60 | 127 | 3.0 | 7.0 | 0.02 | 0.00 | 0.24 | 95 | 1009.0 |
| 20260506161345 | 60 | 20 | 4.0 | 7.0 | 0.09 | 0.00 | 0.23 | 95 | 1009.0 |
| 20260506160844 | 60 | 121 | 5.0 | 6.0 | 0.11 | 0.00 | 0.22 | 95 | 1009.0 |
| 20260506160345 | 60 | 155 | 4.0 | 5.0 | 0.10 | 0.00 | 0.22 | 95 | 1009.0 |
| 20260506155845 | 60 | 60 | 3.0 | 8.0 | 0.01 | 0.00 | 0.21 | 95 | 1009.0 |
| 20260506155344 | 60 | 253 | 6.0 | 11.0 | 0.02 | 0.00 | 0.21 | 95 | 1010.0 |
| 20260506154845 | 60 | 177 | 5.0 | 7.0 | 0.07 | 0.00 | 0.20 | 95 | 1010.0 |
| 20260506154346 | 60 | 247 | 4.0 | 6.0 | 0.14 | 0.00 | 0.19 | 95 | 1010.0 |
| 20260506153844 | 60 | 124 | 3.0 | 4.0 | 0.04 | 0.00 | 0.18 | 95 | 1010.0 |
| 20260506153345 | 60 | 254 | 4.0 | 7.0 | 0.05 | 0.00 | 0.17 | 94 | 1010.0 |
| 20260506152845 | 60 | 253 | 3.0 | 6.0 | 0.18 | 0.00 | 0.16 | 94 | 1010.0 |
| 20260506152346 | 60 | 53 | 2.0 | 6.0 | 0.05 | 0.00 | 0.16 | 94 | 1010.0 |
| 20260506151844 | 60 | 285 | 3.0 | 7.0 | 0.04 | 0.00 | 0.16 | 94 | 1010.0 |
| 20260506151345 | 60 | 263 | 4.0 | 6.0 | 0.05 | 0.00 | 0.15 | 94 | 1010.0 |
| 20260506150845 | 60 | 262 | 4.0 | 6.0 | 0.04 | 0.00 | 0.15 | 94 | 1010.0 |
| 20260506150344 | 60 | 157 | 2.0 | 4.0 | 0.15 | 0.00 | 0.15 | 94 | 1010.0 |
| 20260506145845 | 60 | 76 | 3.0 | 4.0 | 0.14 | 0.00 | 0.14 | 94 | 1010.0 |
| 20260506145344 | 60 | 109 | 2.0 | 5.0 | 0.08 | 0.00 | 0.12 | 93 | 1010.0 |
| 20260506144844 | 60 | 333 | 0.0 | 1.0 | 0.06 | 0.00 | 0.11 | 93 | 1010.0 |
| 20260506144345 | 60 | 107 | 2.0 | 5.0 | 0.05 | 0.00 | 0.10 | 93 | 1010.0 |
| 20260506143844 | 60 | 124 | 4.0 | 9.0 | 0.04 | 0.00 | 0.09 | 92 | 1010.0 |
| 20260506143344 | 60 | 214 | 3.0 | 5.0 | 0.05 | 0.00 | 0.09 | 92 | 1010.0 |
| 20260506142844 | 60 | 213 | 2.0 | 5.0 | 0.03 | 0.00 | 0.08 | 92 | 1010.0 |
| 20260506142344 | 60 | 137 | 3.0 | 6.0 | 0.03 | 0.00 | 0.08 | 91 | 1010.0 |
| 20260506141844 | 60 | 242 | 4.0 | 6.0 | 0.08 | 0.00 | 0.08 | 91 | 1010.0 |
| 20260506141344 | 61 | 269 | 4.0 | 5.0 | 0.07 | 0.00 | 0.07 | 91 | 1010.0 |
| 20260506140845 | 61 | 151 | 1.0 | 4.0 | 0.10 | 0.00 | 0.06 | 90 | 1010.0 |
| 20260506135858 | 62 | 96 | 4.0 | 6.0 | 0.14 | 0.00 | 0.04 | 87 | 1010.0 |
| 20260506135344 | 62 | 197 | 2.0 | 6.0 | 0.01 | 0.00 | 0.04 | 86 | 1010.0 |
| 20260506134846 | 62 | 121 | 4.0 | 6.0 | 0.01 | 0.00 | 0.03 | 86 | 1010.0 |
| 20260506134345 | 62 | 139 | 2.0 | 5.0 | 0.01 | 0.00 | 0.03 | 85 | 1010.0 |
| 20260506133844 | 63 | 213 | 3.0 | 4.0 | 0.01 | 0.00 | 0.03 | 84 | 1010.0 |
| 20260506133344 | 63 | 282 | 2.0 | 6.0 | 0.00 | 0.00 | 0.03 | 84 | 1010.0 |
| 20260506132844 | 63 | 257 | 4.0 | 7.0 | 0.00 | 0.00 | 0.03 | 85 | 1010.0 |
| 20260506132344 | 62 | 141 | 2.0 | 5.0 | 0.01 | 0.00 | 0.03 | 85 | 1010.0 |
| 20260506131845 | 62 | 275 | 3.0 | 8.0 | 0.00 | 0.00 | 0.02 | 85 | 1010.0 |
| 20260506131345 | 62 | 151 | 1.0 | 3.0 | 0.00 | 0.00 | 0.02 | 85 | 1010.0 |
| 20260506130845 | 62 | 153 | 5.0 | 9.0 | 0.00 | 0.00 | 0.01 | 85 | 1010.0 |
| 20260506130345 | 62 | 245 | 2.0 | 4.0 | 0.02 | 0.00 | 0.01 | 85 | 1010.0 |
| 20260506125845 | 63 | 122 | 3.0 | 5.0 | 0.00 | 0.00 | 0.01 | 84 | 1010.0 |
| 20260506125345 | 63 | 259 | 2.0 | 4.0 | 0.01 | 0.00 | 0.00 | 83 | 1010.0 |
| 20260506124844 | 63 | 125 | 3.0 | 5.0 | 0.00 | 0.00 | 0.00 | 82 | 1010.0 |
| 20260506124345 | 63 | 271 | 4.0 | 7.0 | 0.00 | 0.00 | 0.00 | 81 | 1010.0 |
| 20260506123844 | 63 | 249 | 1.0 | 2.0 | 0.00 | 0.00 | 0.00 | 81 | 1010.0 |
| 20260506123345 | 63 | 254 | 4.0 | 6.0 | 0.00 | 0.00 | 0.00 | 81 | 1010.0 |
| 20260506122844 | 64 | 273 | 1.0 | 4.0 | 0.00 | 0.00 | 0.00 | 81 | 1010.0 |
| 20260506122345 | 63 | 247 | 2.0 | 3.0 | 0.00 | 0.00 | 0.00 | 80 | 1010.0 |
| 20260506121844 | 64 | 266 | 4.0 | 5.0 | 0.00 | 0.00 | 0.00 | 80 | 1010.0 |
| 20260506121345 | 64 | 279 | 3.0 | 7.0 | 0.00 | 0.00 | 0.00 | 81 | 1010.0 |
| 20260506120844 | 64 | 264 | 5.0 | 11.0 | 0.00 | 0.00 | 0.00 | 80 | 1010.0 |
| 20260506120344 | 64 | 276 | 3.0 | 5.0 | 0.00 | 0.00 | 0.00 | 80 | 1010.0 |
| 20260506115844 | 64 | 252 | 5.0 | 8.0 | 0.00 | 0.00 | 0.00 | 80 | 1010.0 |
| 20260506115344 | 64 | 91 | 1.0 | 2.0 | 0.00 | 0.00 | 0.00 | 80 | 1010.0 |
| 20260506114844 | 64 | 269 | 5.0 | 8.0 | 0.00 | 0.00 | 0.00 | 80 | 1010.0 |
| 20260506114344 | 64 | 255 | 3.0 | 5.0 | 0.00 | 0.00 | 0.00 | 80 | 1010.0 |
| 20260506113846 | 64 | 267 | 4.0 | 7.0 | 0.00 | 0.00 | 0.00 | 79 | 1010.0 |
| 20260506113344 | 64 | 263 | 6.0 | 13.0 | 0.00 | 0.00 | 0.00 | 80 | 1010.0 |
| 20260506112844 | 63 | 116 | 2.0 | 4.0 | 0.00 | 0.00 | 0.00 | 80 | 1010.0 |
| 20260506112345 | 63 | 263 | 3.0 | 6.0 | 0.00 | 0.00 | 0.00 | 80 | 1010.0 |
| 20260506111844 | 64 | 244 | 4.0 | 6.0 | 0.00 | 0.00 | 0.00 | 80 | 1010.0 |
| 20260506111344 | 64 | 127 | 2.0 | 9.0 | 0.00 | 0.00 | 0.00 | 80 | 1010.0 |
| 20260506110844 | 63 | 225 | 3.0 | 7.0 | 0.00 | 0.00 | 0.00 | 80 | 1009.0 |
| 20260506110344 | 63 | 198 | 2.0 | 5.0 | 0.00 | 0.00 | 0.00 | 80 | 1010.0 |
| 20260506105844 | 63 | 141 | 1.0 | 3.0 | 0.00 | 0.00 | 0.00 | 80 | 1010.0 |
| 20260506105344 | 63 | 179 | 3.0 | 5.0 | 0.00 | 0.00 | 0.00 | 80 | 1010.0 |
| 20260506104844 | 63 | 202 | 2.0 | 4.0 | 0.00 | 0.00 | 0.00 | 80 | 1009.0 |
| 20260506104344 | 63 | 152 | 2.0 | 2.0 | 0.00 | 0.00 | 0.00 | 80 | 1009.0 |
| 20260506103845 | 63 | 256 | 2.0 | 3.0 | 0.00 | 0.00 | 0.00 | 80 | 1009.0 |
| 20260506103344 | 63 | 195 | 4.0 | 6.0 | 0.00 | 0.00 | 0.00 | 80 | 1009.0 |
| 20260506102844 | 63 | 198 | 3.0 | 5.0 | 0.00 | 0.00 | 0.00 | 80 | 1009.0 |
| 20260506102345 | 63 | 192 | 1.0 | 4.0 | 0.00 | 0.00 | 0.00 | 79 | 1009.0 |
| 20260506101844 | 63 | 255 | 2.0 | 4.0 | 0.00 | 0.00 | 0.00 | 80 | 1009.0 |
| 20260506101345 | 63 | 146 | 1.0 | 3.0 | 0.00 | 0.00 | 0.00 | 80 | 1009.0 |
| 20260506100844 | 63 | 177 | 3.0 | 4.0 | 0.00 | 0.00 | 0.00 | 79 | 1009.0 |
| 20260506100345 | 64 | 141 | 2.0 | 3.0 | 0.00 | 0.00 | 0.00 | 79 | 1009.0 |
| 20260506095844 | 64 | 277 | 2.0 | 3.0 | 0.00 | 0.00 | 0.00 | 79 | 1009.0 |
| 20260506095344 | 64 | 135 | 6.0 | 10.0 | 0.00 | 0.00 | 0.00 | 78 | 1009.0 |
| 20260506094844 | 64 | 89 | 1.0 | 3.0 | 0.00 | 0.00 | 0.00 | 79 | 1009.0 |
| 20260506094344 | 64 | 266 | 4.0 | 8.0 | 0.00 | 0.00 | 0.00 | 78 | 1009.0 |
| 20260506093844 | 64 | 97 | 1.0 | 3.0 | 0.00 | 0.00 | 0.00 | 78 | 1009.0 |
| 20260506093344 | 64 | 189 | 2.0 | 4.0 | 0.00 | 0.00 | 0.00 | 77 | 1009.0 |
| 20260506092844 | 65 | 122 | 2.0 | 4.0 | 0.00 | 0.00 | 0.00 | 77 | 1009.0 |
| 20260506092344 | 65 | 259 | 1.0 | 4.0 | 0.00 | 0.00 | 0.00 | 77 | 1009.0 |
| 20260506091844 | 65 | 148 | 4.0 | 6.0 | 0.00 | 0.00 | 0.00 | 76 | 1009.0 |
| 20260506091344 | 65 | 170 | 3.0 | 8.0 | 0.00 | 0.00 | 0.00 | 77 | 1009.0 |
| 20260506090844 | 65 | 237 | 3.0 | 7.0 | 0.00 | 0.00 | 0.00 | 76 | 1009.0 |
| 20260506090344 | 65 | 226 | 4.0 | 6.0 | 0.00 | 0.00 | 0.00 | 77 | 1009.0 |
| 20260506085845 | 65 | 148 | 1.0 | 4.0 | 0.00 | 0.00 | 0.00 | 77 | 1010.0 |
| 20260506085344 | 65 | 218 | 2.0 | 5.0 | 0.00 | 0.00 | 0.00 | 77 | 1009.0 |
| 20260506084846 | 65 | 165 | 3.0 | 4.0 | 0.00 | 0.00 | 0.00 | 76 | 1009.0 |
| 20260506084344 | 65 | 230 | 1.0 | 4.0 | 0.00 | 0.00 | 0.00 | 76 | 1009.0 |
| 20260506083846 | 65 | 119 | 2.0 | 7.0 | 0.00 | 0.00 | 0.00 | 76 | 1009.0 |
| 20260506083344 | 65 | 229 | 3.0 | 4.0 | 0.00 | 0.00 | 0.00 | 76 | 1009.0 |
| 20260506082844 | 65 | 130 | 2.0 | 4.0 | 0.00 | 0.00 | 0.00 | 75 | 1009.0 |
| 20260506082344 | 65 | 172 | 3.0 | 5.0 | 0.00 | 0.00 | 0.00 | 75 | 1009.0 |
| 20260506081844 | 65 | 59 | 1.0 | 4.0 | 0.00 | 0.00 | 0.00 | 75 | 1009.0 |
| 20260506081344 | 65 | 137 | 4.0 | 6.0 | 0.00 | 0.00 | 0.00 | 74 | 1010.0 |
| 20260506080845 | 66 | 214 | 2.0 | 4.0 | 0.00 | 0.00 | 0.00 | 74 | 1009.0 |
| 20260506080344 | 66 | 145 | 2.0 | 4.0 | 0.00 | 0.00 | 0.00 | 73 | 1010.0 |
| 20260506073345 | 66 | 170 | 2.0 | 5.0 | 0.00 | 0.00 | 0.00 | 72 | 1010.0 |
| 20260506072844 | 66 | 128 | 3.0 | 7.0 | 0.00 | 0.00 | 0.00 | 72 | 1010.0 |
| 20260506072345 | 65 | 123 | 2.0 | 5.0 | 0.00 | 0.00 | 0.00 | 72 | 1010.0 |
| 20260506071844 | 65 | 163 | 2.0 | 4.0 | 0.00 | 0.00 | 0.00 | 72 | 1010.0 |
| 20260506071344 | 65 | 160 | 3.0 | 6.0 | 0.00 | 0.00 | 0.00 | 72 | 1010.0 |
| 20260506070844 | 66 | 156 | 3.0 | 5.0 | 0.00 | 0.00 | 0.00 | 71 | 1010.0 |
| 20260506070345 | 66 | 191 | 2.0 | 4.0 | 0.00 | 0.00 | 0.00 | 71 | 1010.0 |
| 20260506062344 | 66 | 187 | 0.0 | 2.0 | 0.00 | 0.00 | 0.00 | 68 | 1010.0 |
| 20260506061844 | 66 | 124 | 3.0 | 4.0 | 0.00 | 0.00 | 0.00 | 68 | 1010.0 |
| 20260506061345 | 66 | 135 | 2.0 | 4.0 | 0.00 | 0.00 | 0.00 | 67 | 1010.0 |
| 20260506060845 | 66 | 261 | 2.0 | 3.0 | 0.00 | 0.00 | 0.00 | 68 | 1010.0 |
| 20260506060344 | 66 | 133 | 2.0 | 3.0 | 0.00 | 0.00 | 0.00 | 67 | 1010.0 |
| 20260506051344 | 67 | 135 | 2.0 | 2.0 | 0.00 | 0.00 | 0.00 | 64 | 1011.0 |
| 20260506050845 | 67 | 227 | 2.0 | 3.0 | 0.00 | 0.00 | 0.00 | 64 | 1011.0 |
| 20260506050344 | 67 | 183 | 3.0 | 7.0 | 0.00 | 0.00 | 0.00 | 64 | 1011.0 |
| 20260506044845 | 67 | 252 | 3.0 | 6.0 | 0.00 | 0.00 | 0.00 | 63 | 1011.0 |
| 20260506044344 | 67 | 182 | 2.0 | 4.0 | 0.00 | 0.00 | 0.00 | 63 | 1011.0 |
| 20260506043844 | 67 | 214 | 2.0 | 6.0 | 0.00 | 0.00 | 0.00 | 63 | 1011.0 |
| 20260506043344 | 67 | 162 | 1.0 | 3.0 | 0.00 | 0.00 | 0.00 | 63 | 1011.0 |
| 20260506042844 | 67 | 159 | 2.0 | 6.0 | 0.00 | 0.00 | 0.00 | 62 | 1011.0 |
| 20260506042345 | 67 | 207 | 2.0 | 9.0 | 0.00 | 0.00 | 0.00 | 62 | 1011.0 |
| 20260506041844 | 67 | 181 | 4.0 | 8.0 | 0.00 | 0.00 | 0.00 | 62 | 1011.0 |
| 20260506041345 | 67 | 252 | 3.0 | 5.0 | 0.00 | 0.00 | 0.00 | 62 | 1011.0 |
| 20260506040844 | 67 | 205 | 2.0 | 3.0 | 0.00 | 0.00 | 0.00 | 62 | 1011.0 |
| 20260506040345 | 67 | 226 | 2.0 | 5.0 | 0.00 | 0.00 | 0.00 | 62 | 1011.0 |
| 20260506035844 | 67 | 112 | 1.0 | 3.0 | 0.00 | 0.00 | 0.00 | 62 | 1011.0 |
| 20260506035344 | 67 | 159 | 1.0 | 4.0 | 0.00 | 0.00 | 0.00 | 63 | 1011.0 |
| 20260506034845 | 67 | 171 | 2.0 | 5.0 | 0.00 | 0.00 | 0.00 | 62 | 1011.0 |
| 20260506034344 | 67 | 212 | 2.0 | 4.0 | 0.00 | 0.00 | 0.00 | 62 | 1011.0 |
| 20260506033845 | 67 | 163 | 2.0 | 4.0 | 0.00 | 0.00 | 0.00 | 62 | 1011.0 |
| 20260506033344 | 67 | 149 | 3.0 | 6.0 | 0.00 | 0.00 | 0.00 | 62 | 1011.0 |
| 20260506032844 | 67 | 157 | 1.0 | 3.0 | 0.00 | 0.00 | 0.00 | 62 | 1011.0 |
| 20260506032344 | 67 | 149 | 1.0 | 4.0 | 0.00 | 0.00 | 0.00 | 62 | 1011.0 |
| 20260506031844 | 68 | 147 | 1.0 | 3.0 | 0.00 | 0.00 | 0.00 | 61 | 1011.0 |
| 20260506031344 | 68 | 140 | 2.0 | 4.0 | 0.00 | 0.00 | 0.00 | 60 | 1011.0 |
| 20260506030845 | 68 | 227 | 1.0 | 3.0 | 0.00 | 0.00 | 0.00 | 60 | 1011.0 |
| 20260506030345 | 68 | 152 | 3.0 | 10.0 | 0.00 | 0.00 | 0.00 | 60 | 1011.0 |
| 20260506025845 | 68 | 251 | 2.0 | 7.0 | 0.00 | 0.00 | 0.00 | 60 | 1011.0 |
| 20260506025344 | 68 | 274 | 2.0 | 4.0 | 0.00 | 0.00 | 0.00 | 59 | 1011.0 |
| 20260506024845 | 68 | 128 | 2.0 | 4.0 | 0.00 | 0.00 | 0.00 | 59 | 1011.0 |
| 20260506024344 | 68 | 122 | 2.0 | 4.0 | 0.00 | 0.00 | 0.00 | 59 | 1011.0 |
| 20260506023844 | 68 | 122 | 3.0 | 6.0 | 0.00 | 0.00 | 0.00 | 59 | 1011.0 |
| 20260506023344 | 68 | 100 | 1.0 | 2.0 | 0.00 | 0.00 | 0.00 | 58 | 1011.0 |
| 20260506022845 | 68 | 142 | 1.0 | 3.0 | 0.00 | 0.00 | 0.00 | 59 | 1011.0 |
| 20260506022344 | 69 | 126 | 2.0 | 8.0 | 0.00 | 0.00 | 0.00 | 58 | 1011.0 |
| 20260506021844 | 69 | 35 | 1.0 | 3.0 | 0.00 | 0.00 | 0.00 | 58 | 1011.0 |
| 20260506021344 | 69 | 282 | 2.0 | 5.0 | 0.00 | 0.00 | 0.00 | 58 | 1011.0 |
| 20260506020844 | 69 | 115 | 3.0 | 6.0 | 0.00 | 0.00 | 0.00 | 58 | 1011.0 |
| 20260506020346 | 69 | 146 | 2.0 | 4.0 | 0.00 | 0.00 | 0.00 | 57 | 1011.0 |
| 20260506015845 | 69 | 108 | 2.0 | 5.0 | 0.00 | 0.00 | 0.00 | 57 | 1011.0 |
| 20260506015345 | 70 | 133 | 2.0 | 4.0 | 0.00 | 0.00 | 0.00 | 57 | 1011.0 |
| 20260506014844 | 70 | 199 | 0.0 | 2.0 | 0.00 | 0.00 | 0.00 | 56 | 1010.0 |
| 20260506014345 | 70 | 155 | 1.0 | 2.0 | 0.00 | 0.00 | 0.00 | 56 | 1010.0 |
| 20260506013845 | 70 | 183 | 2.0 | 4.0 | 0.00 | 0.00 | 0.00 | 56 | 1010.0 |
| 20260506013344 | 71 | 145 | 2.0 | 4.0 | 0.00 | 0.00 | 0.00 | 55 | 1010.0 |
| 20260506012844 | 71 | 86 | 2.0 | 4.0 | 0.00 | 0.00 | 0.00 | 55 | 1010.0 |
| 20260506012345 | 71 | 217 | 1.0 | 4.0 | 0.00 | 0.00 | 0.00 | 54 | 1010.0 |
| 20260506011844 | 71 | 254 | 2.0 | 4.0 | 0.00 | 0.00 | 0.00 | 53 | 1010.0 |
| 20260506011344 | 71 | 173 | 4.0 | 6.0 | 0.00 | 0.00 | 0.00 | 53 | 1010.0 |
| 20260506010845 | 71 | 157 | 1.0 | 5.0 | 0.00 | 0.00 | 0.00 | 53 | 1010.0 |
| 20260506010345 | 71 | 122 | 2.0 | 4.0 | 0.00 | 0.00 | 0.00 | 52 | 1010.0 |
| 20260506005844 | 72 | 199 | 0.0 | 2.0 | 0.00 | 0.00 | 0.00 | 51 | 1010.0 |
| 20260506005344 | 72 | 121 | 1.0 | 3.0 | 0.00 | 0.00 | 0.00 | 51 | 1010.0 |
| 20260506004845 | 72 | 71 | 1.0 | 3.0 | 0.00 | 0.00 | 0.00 | 51 | 1010.0 |
| 20260506004344 | 72 | 264 | 0.0 | 2.0 | 0.00 | 0.00 | 0.00 | 50 | 1010.0 |
| 20260506003845 | 72 | 154 | 1.0 | 3.0 | 0.00 | 0.00 | 0.00 | 49 | 1010.0 |
| 20260506003344 | 72 | 226 | 2.0 | 4.0 | 0.00 | 0.00 | 0.00 | 50 | 1010.0 |
| 20260506002844 | 72 | 80 | 1.0 | 2.0 | 0.00 | 0.00 | 0.00 | 50 | 1010.0 |
| 20260506002344 | 73 | 0 | 0.0 | 0.0 | 0.00 | 0.00 | 0.00 | 49 | 1010.0 |
| 20260506001844 | 73 | 137 | 0.0 | 2.0 | 0.00 | 0.00 | 0.00 | 48 | 1010.0 |
| 20260506001344 | 73 | 182 | 2.0 | 3.0 | 0.00 | 0.00 | 0.00 | 48 | 1010.0 |
| 20260506000844 | 73 | 141 | 2.0 | 4.0 | 0.00 | 0.00 | 0.00 | 48 | 1010.0 |
| 20260506000344 | 73 | 246 | 3.0 | 9.0 | 0.00 | 0.00 | 0.00 | 48 | 1010.0 |
| 20260505235844 | 74 | 173 | 3.0 | 8.0 | 0.00 | 0.00 | 0.00 | 48 | 1010.0 |
| 20260505235345 | 74 | 268 | 2.0 | 3.0 | 0.00 | 0.00 | 0.00 | 48 | 1010.0 |
| 20260505234844 | 74 | 154 | 1.0 | 4.0 | 0.00 | 0.00 | 0.00 | 47 | 1010.0 |
| 20260505234344 | 74 | 257 | 2.0 | 8.0 | 0.00 | 0.00 | 0.00 | 48 | 1009.0 |
| 20260505233844 | 74 | 167 | 2.0 | 4.0 | 0.00 | 0.00 | 0.00 | 47 | 1009.0 |
| 20260505233346 | 75 | 171 | 3.0 | 7.0 | 0.00 | 0.00 | 0.00 | 47 | 1009.0 |
| 20260505232844 | 75 | 110 | 5.0 | 9.0 | 0.00 | 0.00 | 0.00 | 46 | 1009.0 |
| 20260505232344 | 75 | 269 | 2.0 | 5.0 | 0.00 | 0.00 | 0.00 | 46 | 1009.0 |
| 20260505231845 | 75 | 295 | 2.0 | 3.0 | 0.00 | 0.00 | 0.00 | 47 | 1009.0 |
| 20260505231345 | 75 | 142 | 2.0 | 5.0 | 0.00 | 0.00 | 0.00 | 46 | 1009.0 |
| 20260505230844 | 76 | 223 | 4.0 | 10.0 | 0.00 | 0.00 | 0.00 | 46 | 1009.0 |
| 20260505230345 | 76 | 169 | 3.0 | 5.0 | 0.00 | 0.00 | 0.00 | 46 | 1009.0 |
| 20260505225844 | 76 | 167 | 4.0 | 6.0 | 0.00 | 0.00 | 0.00 | 44 | 1009.0 |
| 20260505225344 | 76 | 219 | 4.0 | 8.0 | 0.00 | 0.00 | 0.00 | 44 | 1009.0 |
| 20260505224844 | 76 | 239 | 3.0 | 7.0 | 0.00 | 0.00 | 0.00 | 45 | 1009.0 |
| 20260505224344 | 76 | 250 | 4.0 | 9.0 | 0.00 | 0.00 | 0.00 | 45 | 1009.0 |
| 20260505223845 | 77 | 115 | 1.0 | 4.0 | 0.00 | 0.00 | 0.00 | 46 | 1009.0 |
| 20260505223344 | 77 | 206 | 4.0 | 8.0 | 0.00 | 0.00 | 0.00 | 45 | 1009.0 |
| 20260505222844 | 77 | 235 | 4.0 | 10.0 | 0.00 | 0.00 | 0.00 | 45 | 1009.0 |
| 20260505222344 | 77 | 120 | 3.0 | 6.0 | 0.00 | 0.00 | 0.00 | 45 | 1009.0 |
| 20260505221844 | 77 | 255 | 7.0 | 11.0 | 0.00 | 0.00 | 0.00 | 44 | 1009.0 |
| 20260505221344 | 77 | 245 | 5.0 | 11.0 | 0.00 | 0.00 | 0.00 | 45 | 1009.0 |
| 20260505220844 | 77 | 260 | 6.0 | 15.0 | 0.00 | 0.00 | 0.00 | 44 | 1009.0 |
| 20260505220348 | 78 | 273 | 3.0 | 7.0 | 0.00 | 0.00 | 0.00 | 45 | 1009.0 |
| 20260505215844 | 78 | 241 | 5.0 | 11.0 | 0.00 | 0.00 | 0.00 | 44 | 1009.0 |
| 20260505215344 | 79 | 220 | 5.0 | 10.0 | 0.00 | 0.00 | 0.00 | 43 | 1009.0 |
| 20260505214845 | 79 | 127 | 4.0 | 8.0 | 0.00 | 0.00 | 0.00 | 44 | 1009.0 |
| 20260505214345 | 79 | 262 | 4.0 | 6.0 | 0.00 | 0.00 | 0.00 | 43 | 1009.0 |
| 20260505213844 | 79 | 200 | 6.0 | 9.0 | 0.00 | 0.00 | 0.00 | 44 | 1009.0 |
| 20260505213344 | 78 | 180 | 4.0 | 8.0 | 0.00 | 0.00 | 0.00 | 43 | 1009.0 |
| 20260505212844 | 79 | 152 | 6.0 | 13.0 | 0.00 | 0.00 | 0.00 | 44 | 1009.0 |
| 20260505212347 | 79 | 217 | 4.0 | 7.0 | 0.00 | 0.00 | 0.00 | 45 | 1009.0 |
| 20260505211844 | 79 | 220 | 3.0 | 5.0 | 0.00 | 0.00 | 0.00 | 44 | 1009.0 |
| 20260505211344 | 79 | 179 | 4.0 | 7.0 | 0.00 | 0.00 | 0.00 | 43 | 1009.0 |
| 20260505210844 | 80 | 175 | 6.0 | 11.0 | 0.00 | 0.00 | 0.00 | 43 | 1009.0 |
| 20260505210344 | 80 | 126 | 3.0 | 7.0 | 0.00 | 0.00 | 0.00 | 43 | 1009.0 |
| 20260505205844 | 79 | 230 | 2.0 | 5.0 | 0.00 | 0.00 | 0.00 | 45 | 1009.0 |
| 20260505205345 | 79 | 220 | 4.0 | 10.0 | 0.00 | 0.00 | 0.00 | 43 | 1009.0 |
| 20260505204844 | 79 | 160 | 5.0 | 8.0 | 0.00 | 0.00 | 0.00 | 42 | 1009.0 |
| 20260505204344 | 79 | 131 | 4.0 | 12.0 | 0.00 | 0.00 | 0.00 | 43 | 1009.0 |
| 20260505203844 | 79 | 240 | 2.0 | 7.0 | 0.00 | 0.00 | 0.00 | 43 | 1009.0 |
| 20260505203345 | 79 | 252 | 7.0 | 13.0 | 0.00 | 0.00 | 0.00 | 43 | 1009.0 |
| 20260505202844 | 79 | 245 | 6.0 | 10.0 | 0.00 | 0.00 | 0.00 | 44 | 1009.0 |
| 20260505202345 | 79 | 142 | 4.0 | 8.0 | 0.00 | 0.00 | 0.00 | 45 | 1009.0 |
| 20260505201845 | 79 | 222 | 4.0 | 9.0 | 0.00 | 0.00 | 0.00 | 44 | 1009.0 |
| 20260505201344 | 79 | 250 | 5.0 | 12.0 | 0.00 | 0.00 | 0.00 | 44 | 1009.0 |
| 20260505200844 | 79 | 183 | 5.0 | 12.0 | 0.00 | 0.00 | 0.00 | 45 | 1009.0 |
| 20260505200345 | 79 | 240 | 5.0 | 12.0 | 0.00 | 0.00 | 0.00 | 45 | 1009.0 |
| 20260505195844 | 79 | 246 | 5.0 | 11.0 | 0.00 | 0.00 | 0.00 | 44 | 1009.0 |
| 20260505195344 | 79 | 251 | 6.0 | 9.0 | 0.00 | 0.00 | 0.00 | 46 | 1010.0 |
| 20260505194844 | 79 | 155 | 3.0 | 6.0 | 0.00 | 0.00 | 0.00 | 45 | 1009.0 |
| 20260505194344 | 79 | 190 | 5.0 | 9.0 | 0.00 | 0.00 | 0.00 | 45 | 1010.0 |
| 20260505193845 | 79 | 271 | 9.0 | 12.0 | 0.00 | 0.00 | 0.00 | 45 | 1009.0 |
| 20260505193344 | 79 | 267 | 5.0 | 12.0 | 0.00 | 0.00 | 0.00 | 44 | 1010.0 |
| 20260505192844 | 79 | 149 | 3.0 | 10.0 | 0.00 | 0.00 | 0.00 | 44 | 1010.0 |
| 20260505192345 | 79 | 172 | 4.0 | 8.0 | 0.00 | 0.00 | 0.00 | 43 | 1010.0 |
| 20260505191845 | 79 | 257 | 4.0 | 10.0 | 0.00 | 0.00 | 0.00 | 44 | 1010.0 |
| 20260505191345 | 79 | 277 | 6.0 | 14.0 | 0.00 | 0.00 | 0.00 | 45 | 1010.0 |
| 20260505190844 | 79 | 155 | 3.0 | 6.0 | 0.00 | 0.00 | 0.00 | 43 | 1010.0 |
| 20260505190344 | 79 | 131 | 4.0 | 9.0 | 0.00 | 0.00 | 0.00 | 45 | 1010.0 |
| 20260505185846 | 79 | 259 | 5.0 | 9.0 | 0.00 | 0.00 | 0.00 | 44 | 1010.0 |
| 20260505185345 | 79 | 166 | 6.0 | 9.0 | 0.00 | 0.00 | 0.00 | 42 | 1010.0 |
| 20260505184844 | 79 | 238 | 3.0 | 6.0 | 0.00 | 0.00 | 0.00 | 44 | 1010.0 |
| 20260505184344 | 79 | 212 | 4.0 | 9.0 | 0.00 | 0.00 | 0.00 | 43 | 1010.0 |
| 20260505183844 | 79 | 234 | 4.0 | 9.0 | 0.00 | 0.00 | 0.00 | 43 | 1010.0 |
| 20260505183344 | 79 | 196 | 3.0 | 6.0 | 0.00 | 0.00 | 0.00 | 44 | 1010.0 |
| 20260505182844 | 79 | 164 | 5.0 | 10.0 | 0.00 | 0.00 | 0.00 | 42 | 1010.0 |
| 20260505182345 | 79 | 259 | 8.0 | 13.0 | 0.00 | 0.00 | 0.00 | 44 | 1010.0 |
| 20260505181844 | 80 | 267 | 3.0 | 6.0 | 0.00 | 0.00 | 0.00 | 45 | 1010.0 |
| 20260505181345 | 80 | 257 | 3.0 | 5.0 | 0.00 | 0.00 | 0.00 | 47 | 1010.0 |
| 20260505180844 | 79 | 158 | 4.0 | 8.0 | 0.00 | 0.00 | 0.00 | 45 | 1010.0 |
| 20260505180345 | 79 | 263 | 6.0 | 9.0 | 0.00 | 0.00 | 0.00 | 45 | 1010.0 |
| 20260505175844 | 79 | 165 | 4.0 | 9.0 | 0.00 | 0.00 | 0.00 | 46 | 1010.0 |
| 20260505175346 | 79 | 199 | 5.0 | 7.0 | 0.00 | 0.00 | 0.00 | 47 | 1010.0 |
| 20260505174844 | 78 | 203 | 4.0 | 6.0 | 0.00 | 0.00 | 0.00 | 47 | 1010.0 |
| 20260505174348 | 78 | 153 | 3.0 | 5.0 | 0.00 | 0.00 | 0.00 | 49 | 1011.0 |
| 20260505173845 | 78 | 224 | 4.0 | 7.0 | 0.00 | 0.00 | 0.00 | 48 | 1011.0 |
| 20260505173344 | 78 | 124 | 5.0 | 7.0 | 0.00 | 0.00 | 0.00 | 49 | 1010.0 |
| 20260505172845 | 78 | 146 | 4.0 | 8.0 | 0.00 | 0.00 | 0.00 | 49 | 1011.0 |